Temp
7 7 6 6 5 5 6 7 8 7 8 7 6 7 6 6 7 8 8 8 9 10 10 10 10 10 10 10 11 11 10 10 10 10 9 9 9 9 9 8 8 9 9 10 9 9 8 8 8
6 6 5 5 5 5 7 8 8 6 6 7 6 6 6 7 7 7 8 8 8 9 9 9 10 10 10 10 10 10 10 10 10 9 9 9 9 9 8 8 8 9 9 9 9 9 8 8 8
5 5 5 4 4 7 8 8 7 6 6 6 6 7 6 6 7 7 7 8 8 8 9 9 9 9 9 9 10 10 10 9 9 8 8 8 8 8 8 8 8 8 9 9 9 9 8 8 8
4 4 4 4 6 8 7 6 6 7 6 6 6 5 6 6 6 7 7 7 7 8 8 9 9 9 9 9 9 9 9 9 9 8 8 8 8 8 8 7 8 8 9 9 9 9 8 8 7
4 4 4 4 5 7 7 6 5 6 5 5 6 6 6 6 6 7 7 7 7 7 8 8 8 9 8 8 8 8 8 9 9 8 8 8 8 8 8 7 7 8 8 8 8 8 8 7 7
4 3 3 4 5 6 6 5 5 5 6 5 5 6 5 5 6 6 7 7 6 7 7 7 8 8 8 8 8 8 8 8 9 8 8 8 8 8 7 7 7 7 8 8 8 8 8 7 7
4 3 3 4 5 5 5 5 5 5 4 5 5 5 5 5 6 6 7 6 6 6 6 6 7 7 8 8 7 8 8 8 8 9 8 8 7 7 7 6 6 7 8 8 8 8 8 7 7
4 3 3 4 5 5 5 5 5 5 4 4 5 5 5 5 5 6 6 6 6 6 6 6 6 6 7 7 7 7 7 8 8 8 8 8 7 7 7 6 6 7 7 8 7 7 7 7 7
3 2 3 4 4 5 5 5 4 4 4 4 4 5 5 5 5 5 6 6 6 6 6 6 5 5 6 6 6 6 6 7 7 8 8 8 7 7 7 6 6 6 7 7 7 7 7 7 6
3 3 3 4 4 4 4 4 4 4 4 5 4 4 5 5 4 5 5 6 5 6 5 5 5 5 4 5 6 6 5 5 6 7 8 8 7 7 6 6 6 6 7 7 7 7 7 6 6
2 3 3 3 3 3 3 3 4 4 5 5 4 4 4 5 4 4 5 4 5 5 6 6 5 5 4 4 5 5 5 5 5 6 7 7 7 7 6 6 6 6 6 7 7 7 7 6 6
2 2 2 2 2 2 3 3 4 4 5 4 4 4 4 4 4 4 4 4 4 4 5 5 5 5 4 4 4 5 5 5 5 5 6 6 6 6 6 6 6 6 6 6 7 7 6 6 6
1 2 2 2 2 1 2 3 3 5 3 4 4 5 5 4 4 4 4 4 4 4 4 4 5 5 4 4 4 5 5 5 5 5 5 6 5 6 6 5 6 6 5 6 6 6 6 6 5
1 1 1 1 1 2 2 2 3 3 3 3 3 4 4 4 4 4 4 3 4 4 4 3 4 4 4 3 4 4 5 5 5 4 4 4 5 5 6 5 5 5 5 5 5 5 5 5 5
0 1 1 1 1 0 0 2 2 1 2 2 2 2 2 3 3 4 4 3 3 3 3 4 3 4 4 4 3 4 4 4 4 4 4 4 4 5 5 5 5 5 6 5 5 5 5 5 5
-1 -1 -0 -1 -1 -1 -1 2 1 1 2 1 1 2 1 2 2 3 3 4 3 3 3 3 3 3 4 4 4 3 3 4 5 5 5 5 4 5 5 5 5 6 6 4 5 5 4 4 4
-2 -2 -1 -1 -1 -1 -2 1 1 1 1 2 2 1 2 2 2 2 2 3 3 2 3 2 3 3 3 3 4 4 3 4 4 4 4 5 5 4 5 5 4 5 5 5 4 4 4 4 4
-3 -3 -2 -2 -1 -2 -3 1 0 1 1 1 2 2 2 1 2 1 1 1 2 2 2 2 2 2 2 3 3 3 4 4 4 4 4 4 4 5 5 5 5 4 4 4 3 4 4 4 4
-4 -5 -6 -1 -3 -3 -2 -1 1 1 0 1 1 1 2 2 1 1 1 1 1 2 1 1 1 1 2 3 3 2 3 3 3 4 4 4 4 4 5 4 4 4 4 3 3 3 3 4 4
-5 -5 -2 -2 -3 -4 -3 -1 1 1 1 1 1 1 1 1 0 0 1 1 1 1 1 0 0 0 1 2 2 3 3 3 4 4 4 4 4 4 4 4 4 4 3 3 2 2 3 3 3
-4 -4 -3 -5 -5 -5 -4 -1 -1 -0 -1 -0 0 1 1 0 0 0 1 1 -0 -0 -0 -0 -0 -0 1 1 2 2 3 3 4 4 4 4 4 4 3 3 3 3 3 2 1 1 2 2 3
-4 -4 -5 -5 -4 -4 -4 -4 -3 -1 -1 -2 -2 -1 -0 0 -0 -1 -0 -0 -1 -1 -2 -1 -1 -0 0 1 2 2 3 3 3 4 3 4 3 3 2 1 2 2 2 2 1 -0 -0 2 2
-4 -4 -4 -4 -4 -4 -4 -4 -2 -2 -1 -1 -2 -2 -1 -1 -1 -1 -2 -2 -3 -2 -2 -1 -1 0 0 1 2 3 3 3 2 2 3 3 2 2 2 2 3 3 2 1 0 -1 1 2 1
-4 -3 -3 -3 -4 -4 -3 -4 -2 -3 -3 -3 -2 -2 -1 -1 -1 -1 -2 -2 -2 -2 -2 -1 -1 0 1 1 2 2 2 2 2 2 3 2 2 2 2 2 2 2 2 1 1 1 2 2 2
-4 -4 -5 -5 -4 -4 -2 -3 -3 -3 -2 -2 -2 -2 -1 -1 -1 -1 -1 -2 -2 -2 -1 -1 -1 -0 0 1 1 2 2 3 2 2 2 2 2 1 2 3 3 2 2 2 2 0 1 1 2
-4 -4 -4 -5 -5 -3 -2 -3 -3 -3 -2 -2 -2 -2 -1 -1 -0 -1 -1 -1 -1 -2 -1 -1 -0 -0 -0 0 1 2 2 2 1 1 1 1 2 2 1 1 1 2 1 1 0 1 2 1 1
-3 -3 -3 -3 -3 -3 -2 -3 -3 -3 -2 -2 -2 -2 -1 -2 -2 -1 -2 -2 -1 -1 -1 -1 -1 -0 0 1 1 1 2 2 2 2 2 2 2 2 1 1 1 1 1 1 0 0 0 1 0
-3 -4 -3 -3 -3 -2 -2 -3 -4 -4 -4 -3 -2 -2 -3 -2 -2 -2 -2 -1 -1 -2 -2 -1 -1 -0 0 0 1 1 1 1 1 0 1 1 1 1 1 1 0 0 0 1 1 1 1 1 1
-3 -3 -3 -3 -3 -3 -3 -4 -4 -4 -4 -3 -3 -3 -2 -2 -2 -1 -1 -1 -1 -1 -0 -0 1 1 1 1 0 0 0 1 1 1 1 0 1 1 1 1 1 1 1 1 1 1 1 1 1
-2 -3 -3 -3 -3 -3 -3 -3 -4 -4 -3 -3 -3 -4 -4 -3 -3 -3 -2 -2 -2 -1 -2 -1 0 0 1 -0 -0 -0 -0 -0 -0 -0 0 0 1 1 1 1 1 1 1 1 1 1 1 1 1
Height
3109 3112 3114 3118 3125 3121 3120 3123 3123 3125 3126 3128 3130 3135 3138 3140 3143 3149 3146 3147 3149 3150 3151 3152 3153 3153 3154 3156 3156 3156 3157 3158 3159 3160 3161 3161 3163 3164 3166 3168 3169 3169 3170 3171 3170 3169 3168 3168 3169
3108 3109 3112 3114 3118 3119 3118 3119 3123 3124 3124 3126 3128 3131 3135 3138 3140 3142 3144 3146 3148 3149 3150 3151 3152 3153 3153 3154 3156 3155 3156 3158 3158 3159 3160 3161 3162 3164 3166 3168 3169 3169 3170 3171 3171 3170 3169 3169 3170
3106 3108 3111 3112 3113 3115 3117 3117 3120 3122 3123 3125 3127 3129 3132 3134 3136 3138 3141 3143 3146 3148 3149 3150 3150 3151 3152 3153 3154 3155 3155 3157 3157 3158 3160 3161 3163 3165 3165 3167 3168 3169 3170 3171 3171 3171 3170 3170 3170
3104 3107 3109 3107 3108 3112 3114 3116 3118 3119 3120 3122 3125 3128 3130 3130 3133 3134 3137 3140 3142 3145 3148 3149 3150 3150 3150 3152 3153 3154 3155 3156 3157 3158 3160 3161 3162 3164 3165 3166 3168 3169 3170 3171 3171 3171 3171 3170 3171
3102 3104 3105 3104 3106 3110 3113 3114 3115 3117 3118 3120 3121 3125 3126 3127 3130 3133 3134 3137 3140 3141 3143 3144 3147 3149 3150 3150 3151 3153 3155 3155 3156 3157 3159 3160 3162 3164 3165 3166 3167 3167 3169 3170 3171 3171 3171 3171 3171
3099 3102 3102 3102 3105 3109 3111 3112 3112 3113 3115 3118 3119 3122 3124 3125 3127 3130 3132 3133 3135 3137 3139 3141 3143 3145 3147 3149 3150 3151 3153 3155 3156 3157 3158 3159 3161 3162 3163 3165 3166 3167 3168 3169 3170 3170 3171 3171 3172
3097 3098 3098 3100 3102 3105 3107 3108 3109 3110 3112 3114 3115 3119 3120 3122 3124 3126 3128 3129 3130 3133 3136 3137 3139 3141 3142 3145 3147 3150 3151 3153 3154 3155 3157 3158 3159 3161 3161 3163 3165 3166 3167 3168 3168 3169 3171 3171 3172
3095 3096 3095 3098 3099 3100 3103 3103 3105 3106 3107 3109 3110 3112 3117 3120 3121 3122 3124 3127 3128 3129 3132 3133 3135 3137 3139 3141 3144 3146 3148 3150 3152 3153 3155 3156 3157 3158 3159 3161 3163 3165 3166 3167 3167 3168 3169 3171 3171
3092 3092 3092 3094 3096 3097 3099 3099 3100 3100 3101 3103 3105 3106 3110 3114 3117 3119 3120 3121 3123 3126 3128 3129 3132 3133 3136 3138 3140 3142 3145 3147 3148 3150 3151 3152 3154 3156 3158 3159 3161 3163 3165 3165 3166 3167 3168 3169 3170
3088 3087 3089 3092 3093 3093 3095 3095 3095 3096 3095 3096 3099 3102 3104 3108 3111 3114 3116 3118 3118 3120 3122 3125 3127 3129 3132 3135 3136 3137 3140 3143 3145 3147 3148 3149 3151 3153 3155 3157 3158 3160 3163 3164 3165 3166 3167 3168 3169
3083 3083 3087 3089 3090 3088 3090 3090 3088 3088 3089 3092 3093 3096 3099 3101 3103 3106 3108 3110 3112 3114 3117 3119 3122 3125 3126 3128 3131 3133 3136 3138 3141 3143 3145 3146 3147 3149 3152 3154 3156 3157 3160 3162 3163 3164 3165 3166 3167
3081 3082 3084 3085 3085 3083 3084 3083 3083 3083 3082 3087 3089 3088 3088 3091 3094 3097 3100 3102 3105 3108 3111 3113 3116 3120 3122 3124 3126 3129 3132 3133 3137 3138 3141 3143 3144 3146 3148 3151 3154 3156 3157 3159 3161 3162 3163 3164 3165
3077 3079 3080 3080 3082 3079 3077 3077 3077 3072 3081 3079 3080 3079 3079 3081 3085 3088 3092 3095 3097 3101 3106 3110 3110 3113 3117 3119 3122 3125 3127 3130 3131 3133 3137 3139 3142 3143 3145 3148 3150 3153 3155 3156 3158 3160 3161 3161 3163
3075 3076 3077 3076 3076 3073 3072 3072 3069 3074 3070 3072 3072 3073 3072 3072 3074 3077 3081 3086 3090 3094 3099 3103 3106 3108 3110 3114 3116 3120 3123 3125 3128 3129 3131 3135 3138 3139 3141 3143 3146 3148 3151 3153 3154 3156 3158 3159 3160
3072 3072 3071 3071 3072 3071 3069 3066 3066 3067 3066 3065 3067 3065 3064 3064 3065 3068 3072 3077 3082 3086 3090 3094 3098 3102 3105 3109 3111 3114 3117 3121 3123 3126 3128 3130 3133 3135 3137 3139 3141 3144 3145 3148 3150 3152 3153 3155 3156
3070 3069 3070 3068 3069 3068 3067 3056 3062 3063 3061 3058 3060 3059 3058 3060 3060 3058 3060 3064 3072 3075 3079 3085 3089 3094 3099 3104 3107 3109 3111 3114 3118 3121 3124 3126 3128 3131 3132 3133 3137 3139 3140 3140 3144 3147 3150 3152 3152
3067 3067 3066 3067 3066 3064 3062 3050 3056 3059 3056 3051 3052 3053 3053 3051 3050 3050 3050 3053 3059 3066 3071 3074 3080 3086 3090 3094 3099 3102 3104 3107 3111 3114 3117 3120 3124 3125 3126 3128 3130 3134 3131 3130 3138 3142 3145 3148 3149
3065 3065 3063 3063 3064 3060 3054 3046 3048 3052 3048 3043 3045 3045 3043 3041 3041 3041 3042 3042 3045 3052 3060 3066 3071 3076 3082 3087 3089 3093 3097 3101 3105 3106 3110 3112 3115 3118 3119 3121 3123 3127 3124 3121 3127 3137 3141 3142 3145
3064 3063 3060 3059 3060 3053 3051 3044 3042 3044 3039 3038 3038 3036 3034 3032 3033 3034 3035 3034 3036 3041 3047 3054 3061 3069 3074 3079 3084 3087 3090 3094 3096 3099 3102 3103 3106 3108 3110 3112 3115 3120 3119 3115 3121 3129 3134 3138 3140
3062 3060 3057 3055 3056 3053 3048 3037 3036 3035 3033 3032 3030 3028 3026 3026 3026 3027 3027 3026 3027 3032 3036 3043 3052 3060 3067 3073 3078 3080 3084 3087 3090 3092 3092 3095 3097 3099 3101 3102 3108 3110 3111 3111 3114 3122 3129 3131 3133
3059 3058 3056 3056 3053 3050 3043 3030 3030 3031 3029 3027 3023 3022 3020 3019 3019 3019 3019 3017 3019 3022 3028 3035 3044 3053 3060 3067 3072 3074 3077 3080 3082 3084 3085 3086 3086 3088 3090 3094 3101 3102 3104 3108 3109 3109 3120 3125 3128
3056 3056 3055 3055 3054 3049 3046 3034 3027 3025 3024 3021 3018 3015 3015 3014 3013 3014 3014 3013 3013 3016 3022 3030 3037 3045 3054 3060 3064 3068 3071 3072 3074 3075 3077 3077 3079 3081 3083 3087 3093 3096 3098 3098 3101 3103 3112 3118 3123
3057 3055 3053 3051 3048 3045 3040 3040 3024 3022 3020 3016 3011 3009 3008 3009 3009 3010 3010 3010 3011 3013 3017 3025 3033 3040 3047 3053 3057 3060 3062 3065 3066 3067 3070 3072 3075 3076 3079 3081 3085 3090 3091 3097 3098 3104 3109 3114 3118
3055 3053 3050 3045 3044 3042 3036 3037 3025 3022 3017 3013 3007 3003 3006 3006 3006 3006 3006 3006 3008 3011 3015 3022 3029 3035 3042 3047 3050 3052 3056 3060 3061 3062 3064 3068 3071 3072 3074 3078 3079 3082 3085 3090 3094 3100 3105 3109 3111
3055 3054 3049 3046 3044 3039 3034 3034 3029 3023 3017 3014 3009 3006 3004 3003 3000 3000 3001 3003 3004 3007 3014 3018 3024 3030 3037 3041 3043 3046 3051 3053 3056 3057 3060 3063 3065 3068 3071 3071 3075 3078 3081 3084 3087 3092 3097 3099 3101
3053 3053 3052 3053 3047 3037 3034 3032 3029 3022 3016 3014 3011 3006 3004 3000 2994 2992 2995 2998 3002 3006 3011 3016 3021 3027 3032 3035 3037 3040 3043 3046 3048 3052 3055 3056 3058 3062 3066 3069 3071 3073 3076 3079 3081 3085 3090 3092 3094
3051 3051 3051 3048 3043 3041 3035 3032 3028 3023 3017 3015 3010 3005 3005 3004 2995 2988 2989 2994 3000 3004 3008 3014 3019 3025 3029 3031 3032 3036 3037 3039 3044 3045 3049 3051 3054 3059 3062 3064 3066 3070 3072 3075 3077 3081 3085 3086 3087
3050 3050 3050 3048 3045 3039 3036 3033 3030 3025 3019 3017 3014 3010 3007 3005 3000 2993 2987 2991 2997 3002 3007 3012 3018 3023 3025 3027 3030 3033 3035 3039 3042 3044 3047 3049 3052 3055 3059 3060 3062 3064 3068 3070 3073 3076 3078 3079 3082
3050 3048 3048 3048 3046 3042 3040 3039 3034 3029 3025 3022 3018 3016 3013 3010 3007 3003 3000 2999 3000 3003 3007 3011 3015 3018 3022 3027 3031 3033 3036 3038 3041 3044 3046 3049 3051 3053 3057 3058 3059 3061 3064 3066 3068 3070 3071 3073 3075
3049 3047 3047 3047 3047 3043 3043 3044 3036 3034 3030 3028 3025 3023 3021 3019 3017 3014 3011 3010 3009 3011 3011 3013 3014 3017 3023 3027 3032 3035 3037 3040 3041 3044 3046 3048 3051 3053 3055 3056 3058 3060 3061 3062 3062 3064 3065 3065 3065
Wind_Speed
10 10 11 12 10 9 16 14 18 9 7 17 20 26 14 15 12 7 4 5 3 9 11 12 10 7 5 6 7 6 7 6 7 7 6 4 5 5 6 5 2 1 2 3 8 8 4 1 2
10 11 12 14 9 12 11 16 15 6 8 9 19 25 20 17 16 17 14 9 3 5 8 8 8 9 10 8 9 8 8 8 8 7 7 6 6 6 6 5 3 2 3 4 7 7 2 1 3
11 12 13 8 14 18 8 10 12 14 11 10 13 19 24 20 17 15 8 7 9 11 11 12 9 8 10 11 10 10 9 9 9 6 5 6 7 7 8 6 5 4 3 4 6 7 2 2 4
12 14 14 15 13 7 15 13 9 12 21 22 17 12 18 20 21 18 12 9 11 12 14 13 12 12 9 11 13 12 11 11 10 9 8 8 8 8 10 8 7 6 4 4 6 5 1 2 4
15 16 18 16 17 16 14 14 11 10 14 16 25 22 17 20 20 21 18 15 16 13 15 14 14 13 8 4 9 12 13 12 12 12 12 11 9 12 12 10 9 8 6 5 6 6 2 4 4
17 16 14 20 20 16 15 17 19 20 21 20 21 23 23 19 19 21 22 20 20 18 17 16 18 19 17 13 10 9 11 13 14 13 13 13 12 14 14 13 11 10 8 7 6 6 5 5 5
16 17 20 21 20 18 17 17 21 25 24 21 23 25 25 23 20 22 24 23 21 21 19 15 16 18 21 20 15 14 15 14 15 15 15 16 16 17 18 16 14 12 10 9 8 7 7 6 6
17 20 22 21 21 20 19 20 22 24 25 26 26 24 29 26 25 23 26 25 23 22 21 20 22 17 17 19 21 17 17 19 18 16 15 18 20 19 21 19 16 14 13 12 11 8 7 7 7
17 20 22 22 19 18 17 19 20 23 25 28 29 32 29 29 31 27 27 27 27 26 24 21 19 20 17 18 17 16 17 18 20 20 19 20 22 23 24 21 19 17 16 15 13 11 9 8 7
21 24 20 21 20 21 19 22 24 25 28 31 30 32 34 32 31 32 30 31 29 29 26 25 24 22 17 16 15 17 18 20 22 23 23 23 22 25 25 25 20 19 18 18 16 14 12 10 9
23 26 21 21 22 24 23 24 28 30 30 30 32 32 34 36 37 37 36 32 34 33 31 27 24 22 22 20 16 14 17 16 21 25 26 25 23 26 26 28 27 22 21 20 20 16 13 12 11
22 22 21 21 22 25 26 29 29 30 33 29 29 33 37 38 41 42 41 39 34 36 34 32 30 25 23 21 20 18 18 19 22 25 27 27 26 27 27 26 28 25 23 23 21 18 16 14 13
21 21 21 22 21 24 27 30 30 36 25 29 31 35 38 40 42 45 45 44 42 38 36 33 33 29 27 23 23 20 21 21 25 27 27 26 27 29 30 28 28 28 27 26 24 21 19 16 15
19 19 19 20 19 26 28 28 32 24 26 25 27 32 38 41 42 47 49 48 48 43 39 37 37 33 30 27 25 24 25 23 24 17 21 26 30 31 32 31 30 30 30 29 27 25 22 19 18
18 20 19 19 17 19 22 28 25 14 19 22 24 28 30 34 41 46 48 51 49 50 45 42 40 38 37 33 28 25 23 21 25 23 25 20 24 34 36 36 35 33 32 30 31 30 27 24 19
15 17 13 11 11 14 21 36 24 18 24 27 28 31 32 29 32 38 45 50 52 53 53 46 44 42 41 39 33 29 29 29 30 29 27 30 27 28 35 38 37 38 35 34 35 33 30 25 20
9 11 12 13 13 19 23 38 26 24 27 35 30 28 28 32 34 37 39 41 51 52 55 52 48 44 44 40 42 38 32 30 33 34 35 31 34 35 36 38 35 46 41 38 39 36 32 27 23
7 12 15 15 13 22 31 41 34 27 27 33 29 28 31 31 30 30 35 37 42 48 51 54 50 46 43 43 39 38 39 35 30 30 31 38 38 37 41 40 40 46 47 43 39 39 34 29 26
11 13 18 18 17 25 26 36 34 24 26 25 28 32 31 30 28 28 29 38 40 44 44 50 50 46 45 42 43 38 39 40 39 39 41 41 43 42 41 43 44 48 58 43 38 40 38 29 31
12 17 19 21 10 25 29 37 31 26 20 20 21 20 22 24 23 26 31 34 39 41 44 41 48 43 41 42 41 44 38 42 46 45 44 42 45 45 47 46 40 46 42 45 42 38 36 33 33
14 18 17 19 22 25 21 32 16 23 20 21 24 24 21 21 20 19 22 25 31 35 37 37 41 41 39 37 36 40 37 45 44 46 45 44 42 46 38 44 44 28 38 46 43 38 35 32 34
17 8 12 16 18 12 22 10 28 17 15 14 17 20 21 20 20 19 18 19 23 26 25 27 31 35 34 36 35 33 36 37 37 33 32 31 29 31 28 41 43 42 25 29 35 46 32 35 36
12 14 20 23 26 27 23 11 9 18 22 23 23 24 23 21 21 20 17 13 17 23 26 27 29 31 33 35 32 33 33 34 33 30 27 24 25 31 34 33 30 39 48 34 22 24 30 35 31
15 18 19 13 10 5 7 10 8 20 24 23 17 12 19 19 20 23 22 20 21 22 27 28 32 30 32 36 40 37 32 33 32 28 29 34 30 25 35 36 33 32 33 35 27 31 34 35 35
6 10 5 4 1 5 8 9 9 20 12 16 13 10 7 14 21 22 21 20 19 22 28 28 30 30 33 35 30 32 36 38 33 32 34 36 36 36 25 27 26 31 30 34 35 32 35 36 38
7 7 3 3 2 6 9 6 8 13 11 12 17 11 13 14 26 26 19 20 20 19 20 22 22 28 22 23 28 32 35 35 31 32 36 24 28 31 30 29 28 30 33 32 35 38 41 43 50
3 5 7 6 9 5 6 7 5 12 4 9 12 11 10 7 21 10 28 23 25 20 19 19 20 21 20 18 27 19 8 18 15 18 20 18 28 24 22 28 29 32 33 33 33 35 41 38 37
7 7 3 3 3 3 4 4 17 16 12 8 11 15 14 9 28 36 15 15 21 25 24 22 23 18 25 14 20 12 9 13 10 16 12 15 18 10 13 20 29 34 32 32 29 30 35 36 31
5 3 2 3 3 2 3 4 11 12 12 13 15 17 17 19 25 32 36 36 33 32 32 30 30 31 23 19 12 14 12 10 15 14 14 14 8 10 11 10 11 14 17 21 24 23 22 29 30
10 8 4 3 1 2 0 6 11 19 31 31 33 35 35 35 37 37 35 32 34 31 32 26 23 24 22 14 19 16 14 14 12 10 9 10 9 9 8 10 13 14 16 20 22 26 30 32 34
Wind_Direction
221 228 219 206 202 216 224 232 243 253 246 223 222 224 225 221 219 205 135 62 220 228 242 248 254 252 265 289 287 280 277 276 280 280 276 247 229 214 191 194 194 280 321 358 350 354 15 65 137
216 211 214 208 220 222 244 246 243 240 216 204 217 217 220 228 233 239 253 260 249 234 231 228 241 262 266 267 265 263 266 263 263 261 261 243 222 197 201 202 211 251 306 342 349 348 12 130 136
217 213 209 208 225 233 249 266 226 219 185 195 210 221 231 236 237 237 246 237 238 254 254 267 268 259 265 263 254 254 256 255 255 245 250 242 212 195 216 218 225 239 268 316 336 341 338 153 148
214 211 216 223 223 228 239 257 273 224 228 229 224 212 220 230 231 230 213 215 225 245 246 252 258 265 258 255 253 246 248 252 250 238 227 242 216 211 224 224 229 239 254 292 320 329 303 187 170
220 221 224 238 236 235 244 244 246 224 225 236 231 220 211 224 230 230 208 213 227 222 226 224 233 249 250 250 253 259 261 253 253 246 226 228 220 223 231 228 229 233 243 269 300 307 218 211 204
222 223 233 243 255 259 252 252 249 248 245 247 241 229 222 224 223 221 219 218 217 213 223 223 229 236 255 259 260 271 272 267 260 253 239 226 225 221 228 230 233 238 241 258 273 287 253 211 224
227 235 242 250 261 265 265 260 256 254 252 250 248 239 232 229 223 221 222 224 214 218 226 224 233 231 237 255 273 272 271 276 269 260 250 226 222 222 230 231 233 240 243 247 257 272 264 238 235
232 236 247 253 258 266 268 268 266 262 261 252 249 248 240 235 232 229 224 227 228 217 222 235 230 233 239 245 259 268 271 273 270 262 252 241 229 223 228 233 235 238 244 249 252 255 257 254 250
235 236 247 254 262 268 265 263 263 264 263 259 253 246 241 240 239 237 233 232 231 227 225 226 237 237 238 246 255 263 256 256 266 261 253 236 233 229 221 229 231 237 244 246 251 252 248 246 248
234 241 250 256 264 268 267 266 267 262 260 259 257 253 248 241 238 239 240 237 236 233 227 229 232 236 234 241 249 260 253 255 259 257 248 240 237 232 231 226 228 232 241 245 247 254 251 247 241
241 246 252 260 267 268 266 265 267 267 259 259 262 259 254 248 241 235 239 237 240 239 236 231 229 231 234 233 238 248 255 254 256 255 249 236 234 238 235 234 234 232 237 243 247 248 252 253 250
245 254 259 263 265 270 275 271 267 268 269 267 267 261 254 248 245 240 235 241 236 239 239 234 234 233 235 243 235 243 248 249 259 238 245 243 231 232 234 235 235 237 237 238 242 246 247 250 252
253 259 264 269 270 271 272 274 278 270 288 272 262 258 256 254 246 244 240 236 241 237 239 236 232 228 233 235 243 247 249 254 247 247 238 246 243 235 235 238 233 235 237 233 235 239 245 245 248
262 268 270 275 276 275 276 274 273 294 276 279 272 265 261 256 252 245 240 237 237 240 237 238 238 233 231 232 235 243 248 252 254 250 250 243 244 240 240 236 234 233 236 232 229 234 236 239 246
266 272 278 280 277 275 278 276 282 288 282 279 273 269 263 263 260 253 247 240 235 238 238 236 238 239 238 240 236 234 240 244 247 251 260 253 257 247 244 245 236 234 237 229 228 230 231 233 237
275 283 280 278 281 287 286 277 277 294 286 281 278 270 269 271 273 269 257 246 235 232 238 235 235 237 238 243 245 250 252 254 256 261 260 264 263 259 253 250 249 235 236 224 227 229 232 233 232
281 285 290 288 288 290 283 280 292 298 288 282 282 281 278 272 273 263 265 257 246 235 232 237 235 235 239 240 246 251 255 260 262 261 268 267 264 260 251 264 268 241 232 226 224 227 230 231 234
285 291 284 287 283 290 286 286 294 301 283 277 276 284 285 281 274 265 260 260 253 242 233 232 234 233 233 237 241 241 249 255 260 266 270 271 264 262 262 259 257 235 250 234 215 224 227 229 236
282 292 291 298 315 293 297 292 297 303 281 279 272 283 279 275 274 265 266 263 253 246 238 230 229 230 232 234 241 246 249 254 261 268 273 275 264 266 262 262 258 237 245 239 216 220 224 229 236
295 303 303 307 301 307 307 295 301 304 290 269 278 279 277 272 271 272 274 263 260 251 240 232 228 223 227 232 235 245 249 257 264 266 270 272 266 260 269 261 249 245 249 237 214 219 223 226 236
291 293 314 301 313 314 314 311 305 311 292 286 283 269 268 268 264 270 277 268 250 252 245 229 226 222 225 231 239 247 256 262 265 269 271 272 268 265 248 241 241 247 244 244 236 211 214 227 238
299 313 305 297 309 298 305 292 311 327 319 305 301 271 253 258 255 259 278 265 247 245 234 223 218 216 222 228 234 243 257 261 267 262 258 264 263 256 245 242 243 246 244 241 237 217 210 233 237
292 303 309 302 292 293 294 259 291 313 323 320 291 256 246 245 257 254 270 251 239 223 206 201 201 209 216 220 230 241 246 254 264 259 240 246 259 249 244 245 243 252 239 253 215 213 223 230 236
303 309 307 293 283 252 297 234 291 339 323 339 335 300 247 255 262 260 255 245 241 226 197 200 205 206 214 225 234 244 251 264 260 254 250 249 253 255 248 238 241 250 244 241 219 228 233 234 240
320 319 312 353 271 242 321 296 293 335 12 344 347 344 285 268 262 262 256 243 243 206 202 207 209 211 220 230 235 244 254 260 250 244 249 254 243 259 230 226 213 215 224 225 221 224 232 237 241
289 289 277 283 291 297 316 322 315 1 54 327 328 309 309 295 279 259 239 228 203 199 200 201 205 212 213 228 243 248 258 248 242 246 247 247 239 240 237 230 228 235 233 218 216 219 227 235 241
301 243 287 271 285 270 317 336 316 345 35 7 340 303 303 37 49 237 226 207 195 201 198 185 192 196 214 235 236 216 187 216 224 230 222 220 226 220 249 248 248 231 229 234 231 237 241 246 249
273 313 306 258 304 298 335 357 344 14 41 80 59 58 64 63 69 72 96 198 204 202 206 188 186 206 214 154 168 159 171 141 159 168 176 220 214 238 233 239 235 241 242 251 234 245 243 253 267
29 320 272 277 288 302 324 350 358 42 72 86 87 78 75 74 72 92 100 98 103 114 119 131 149 156 168 196 178 184 188 196 197 190 189 184 175 186 220 229 236 242 242 247 244 247 252 258 263
325 352 347 214 187 349 28 14 87 91 87 86 81 75 71 67 64 65 76 85 91 82 89 115 131 166 172 136 119 116 111 110 111 117 129 148 174 190 204 212 222 227 236 239 244 248 253 258 263